Weather History for KPOU - April, 2014

Change the Weather History Date:

Thursday, April 10, 2014

  Actual Average Record
Temperature  
Mean Temperature 46 °F 47 °F  
Max Temperature 65 °F 59 °F 79 °F (1955)
Min Temperature 27 °F 35 °F 20 °F (1950)
Degree Days  
Heating Degree Days 19 18  
Month to date heating degree days 190 202  
Since 1 July heating degree days 5920 5647  
Cooling Degree Days 0 0  
Month to date cooling degree days 0 0  
Year to date cooling degree days 0 0  
Moisture  
Dew Point 25 °F    
Average Humidity 45    
Maximum Humidity 75    
Minimum Humidity 25    
Precipitation  
Precipitation 0.00 in 0.13 in 1.32 in (1983)
Month to date precipitation 0.22 1.28  
Year to date precipitation 7.25 10.59  
Sea Level Pressure  
Sea Level Pressure 30.05 in    
Wind  
Wind Speed 5 mph (South)    
Max Wind Speed 15 mph    
Max Gust Speed 26 mph    
Visibility 10 miles    
Events      
T = Trace of Precipitation, MM = Missing Value Source: NWS Daily Summary

Daily Weather History Graph

Daily Weather History Graph

Search for Another Location

Airport or City:

Trip Planner

Search our weather history database for the weather conditions in past years. The results will help you decide how hot, cold, wet, or windy it might be!

Date:

Astronomy

Apr. 10, 2014 Rise Set
Actual Time 6:23 AM EDT 7:30 PM EDT
Civil Twilight 5:55 AM EDT 7:59 PM EDT
Nautical Twilight 5:21 AM EDT 8:33 PM EDT
Astronomical Twilight 4:45 AM EDT 9:09 PM EDT
Moon 3:08 PM EDT (4/10) 3:48 AM EDT (4/10)
Length of Visible Light 14h 04m
Length of Day
13h 07m
Waxing Gibbous, 79% of the Moon is Illuminated
Apr 10
Waxing Gibbous
Apr 15
Full
Apr 22
Last Quarter
Apr 29
New
May 6
First Quarter

Hourly Weather History & Observations

Time (EDT) Temp. Windchill Dew Point Humidity Pressure Visibility Wind Dir Wind Speed Gust Speed Precip Events Conditions
12:53 AM 35.1 °F 32.2 °F 19.0 °F 52% 30.04 in 10.0 mi ESE 3.5 mph - N/A   Clear
1:53 AM 32.0 °F - 19.9 °F 61% 30.05 in 10.0 mi Calm Calm - N/A   Clear
2:53 AM 30.0 °F - 19.9 °F 66% 30.05 in 10.0 mi Calm Calm - N/A   Clear
3:53 AM 28.9 °F - 19.9 °F 69% 30.06 in 10.0 mi Calm Calm - N/A   Clear
4:53 AM 28.0 °F - 19.9 °F 72% 30.08 in 10.0 mi Calm Calm - N/A   Clear
5:53 AM 28.0 °F - 21.0 °F 75% 30.10 in 10.0 mi Calm Calm - N/A   Clear
6:53 AM 28.0 °F - 21.0 °F 75% 30.13 in 10.0 mi Calm Calm - N/A   Clear
7:53 AM 36.0 °F 32.1 °F 25.0 °F 64% 30.16 in 10.0 mi ESE 4.6 mph - N/A   Clear
10:53 AM 54.0 °F - 21.9 °F 29% 30.15 in 10.0 mi SW 15.0 mph 21.9 mph N/A   Clear
11:53 AM 57.9 °F - 24.1 °F 27% 30.11 in 10.0 mi SSW 11.5 mph - N/A   Clear
12:53 PM 61.0 °F - 26.1 °F 26% 30.09 in 10.0 mi SW 15.0 mph 20.7 mph N/A   Clear
1:53 PM 63.0 °F - 27.0 °F 26% 30.06 in 10.0 mi South 12.7 mph 21.9 mph N/A   Clear
2:53 PM 64.0 °F - 27.0 °F 25% 30.03 in 10.0 mi South 15.0 mph 25.3 mph N/A   Clear
3:53 PM 63.0 °F - 27.0 °F 26% 30.01 in 10.0 mi South 12.7 mph 21.9 mph N/A   Clear
4:53 PM 62.1 °F - 27.0 °F 26% 30.00 in 10.0 mi South 15.0 mph 25.3 mph N/A   Clear
5:53 PM 60.1 °F - 26.1 °F 27% 29.99 in 10.0 mi SSE 13.8 mph 26.5 mph N/A   Clear
7:53 PM 55.9 °F - 28.0 °F 34% 29.99 in 10.0 mi SSE 8.1 mph - N/A   Clear
8:53 PM 54.0 °F - 30.9 °F 41% 30.00 in 10.0 mi SSE 6.9 mph - N/A   Clear
9:53 PM 54.0 °F - 34.0 °F 47% 29.99 in 10.0 mi SSE 9.2 mph - N/A   Clear
10:53 PM 57.0 °F - 34.0 °F 42% 29.97 in 10.0 mi South 9.2 mph - N/A   Overcast
11:53 PM 57.0 °F - 33.1 °F 40% 29.97 in 10.0 mi Variable 5.8 mph 18.4 mph N/A   Partly Cloudy